STARLINK-1500, 45744

Orbit data source: Space-Track

STARLINK-1500, 45744 is a payload satellite owned by SpaceX/Seattle (US) in LEO that was launched on Sat, 13 Jun 2020 UTC via an FALCON 9 launch vehicle from the Air Force Eastern Test Range (AFETR). Payload-class satellites include a variety of spacecraft equipped with specific instruments for various scientific and technological missions. These include communications satellites like Starlink; space stations such as the ISS; scientific satellites like the Hubble; Earth observation satellites from companies like Planet Labs, Umbra, and HawkEye 360; GPS; miniature CubeSats for education and research; and military/defense satellites.

Loading next visibility...
Identifier
45744, 2020-038Q
Orbit
LEO
Country
Flag of USUS
Related business
Manufacturer
SpaceX/Seattle
Mission
Partially operational Commercial Communications
Bus & Motor
STARLINK, Unknown motor
Mass
260 kg wet, ~248 kg dry
Launch date (UTC)
2020-06-13 (6 years ago)
Launch vehicle
FALCON 9
Launch site
Air Force Eastern Test Range (AFETR)
Object type
Payload
Rocket body
Debris
Shape & HBR
Box + 1 Pan, 10.1 m
Radar Cross Section
13.562 m², Large (>1 m²)

Expand to show TLE details & history
Last TLE update: 13 hours ago

TLE from 13 hours ago
0 STARLINK-1500
1 45744U 20038Q   26095.29831796  .00033253  00000-0  93108-3 0  9994
2 45744  53.0364  67.7921 0003284  27.5657 332.5518 15.36350921320904
Epoch: 2026-04-05T07:09Z
TLE epoch observation values (Epoch: 2026-04-05T07:09:34.671Z)
Latitude
-0.00007°
Longitude
126.79184°
Altitude
455.808 km
Speed
7.641 km/s
True Right ascension
04h 31m 10s
True Declination
0° 00' 00"
Sunlit
Object was in daylight at epoch
Visualization orbit readout
Latitude
Unknown
Longitude
Unknown
Altitude
Unknown
Speed
Unknown
Apparent Right ascension
Unknown
Apparent Declination
Unknown
Sunlit
N/A
Visualization observer readout
Local Sidereal Time
01:55:13
Azimuth
Unknown
Elevation
Unknown
Doppler factor
Unknown
Orbital elements
Apogee altitude
459.433 km
Perigee altitude
454.943 km
Semi-major axis
6,835.325 km
Eccentricity
0.00033
Inclination
53.0364°
RAAN
67.7921°
Arg. of periapsis
27.5657°
True anomaly
332.53445°
Mean anomaly
332.5518°
Eccentric anomaly
332.54312°
Mean motion
3.84065 °/min
Orbital period
93.73 mins
BSTAR
0.00093108
Loading maneuver chart data...
Computing Atmospheric mass density...

Documentation

Showing up to 5 results
|